Zurück zum Katalog

YAOGAN-35 04A

AktivMilitärVLEO
NORAD 53522·PAYLOAD·🇨🇳 China

Gestartet Aug 19, 2022 von Xichang Satellite Launch Center

Loading…

Nächste Überflüge (nächste 24 Stunden)

TLE

AktuellSource: Space-Track

Epoche: Sep 14, 2026, 08:04 UTC

1 53522U 22100A   26257.33651656  .00007315  00000-0  30514-3 0  9991
2 53522  35.0102 211.2142 0007558 354.0025   6.0598 15.22952083226866

Verfolge YAOGAN-35 04A in Echtzeit mit AllMySat

Download on the App Store